Home > Weather > Hollywood > Past weeks

Flag for USA Past Weather in Hollywood, Florida, USA — Yesterday and Last 2 Weeks

Now
87 °F

Passing clouds.


Feels Like: 98 °F
Forecast: 81 / 91 °F
Wind: 10 mph from East

Location: Fort Lauderdale / Hollywood International Airport

Current Time: Jul 27, 2016 at 7:05:45 PM

Latest Report: Jul 27, 2016 at 5:53 PM


Visibility: 10 mi

Pressure: 30.01 "Hg

Humidity: 69%

Dew Point: 76 °F

Location of HollywoodLocation

Past Weather in Hollywood — Graph

°F

Hollywood Temperature Yesterday

Maximum temperature yesterday: 90 °F (at 3:53 PM)
Minimum temperature yesterday: 79 °F (at 10:57 PM)
Average temperature yesterday: 85 °F

High & Low Weather Summary for the Past Weeks

 TemperatureHumidityPressure
High91 °F (Jul 13, 12:53 PM)90% (Jul 27, 1:53 AM)30.18 "Hg (Jul 27, 1:53 AM)
Low77 °F (Jul 23, 4:53 AM)57% (Jul 19, 2:53 PM)29.98 "Hg (Jul 23, 4:53 PM)
Average85 °F72%30.07 "Hg
* Reported Jul 12 5:53 PM — Jul 27 5:53 PM, Hollywood, Weather by CustomWeather, © 2016

Note: Actual official high and low records may vary slightly from our data, if they occured in-between our weather recording intervals... More about our weather records

Advertising

Hollywood Weather History for the Previous 24 Hours

Scroll right to see more
 ConditionsComfort  
Time TempWeatherWind HumidityBarometerVisibility
5:53 PM
Wed, Jul 27
87 °FPassing clouds.10 mph69%30.01 "Hg10 mi
4:53 PM88 °FPassing clouds.10 mph67%30.02 "Hg10 mi
3:53 PM89 °FPassing clouds.12 mph63%30.03 "Hg10 mi
2:53 PM90 °FScattered clouds.14 mph66%30.05 "Hg10 mi
1:53 PM90 °FPassing clouds.17 mph63%30.06 "Hg10 mi
12:53 PM89 °FPassing clouds.16 mph68%30.07 "Hg10 mi
11:53 AM89 °FScattered clouds.15 mph65%30.08 "Hg10 mi
10:53 AM87 °FScattered clouds.10 mph69%30.08 "Hg10 mi
9:53 AM84 °FPartly sunny.9 mph74%30.09 "Hg10 mi
8:53 AM82 °FPartly sunny.6 mph82%30.09 "Hg10 mi
7:53 AM81 °FBroken clouds.8 mph79%30.08 "Hg10 mi
6:53 AM81 °FPassing clouds.8 mph82%30.06 "Hg10 mi
5:53 AM80 °FPassing clouds.No wind87%30.03 "Hg10 mi
4:53 AM79 °FClear.3 mph88%30.03 "Hg10 mi
3:53 AM79 °FClear.5 mph88%30.03 "Hg10 mi
2:53 AM79 °FPassing clouds.5 mph88%30.04 "Hg10 mi
1:53 AM79 °FPassing clouds.No wind90%30.06 "Hg10 mi
12:53 AM80 °FPassing clouds.No wind85%30.06 "Hg10 mi
11:53 PM
Tue, Jul 26
80 °FPassing clouds.3 mph81%30.07 "Hg10 mi
10:57 PM79 °FHeavy rain. Fog.13 mph88%30.09 "Hg5 mi
9:53 PM85 °FPassing clouds.8 mph75%30.05 "Hg10 mi
8:53 PM85 °FPartly sunny.10 mph72%30.05 "Hg10 mi
7:53 PM86 °FBroken clouds.13 mph70%30.03 "Hg10 mi
Weather by CustomWeather, © 2016

See weather overviewHow to use our weather pages